Regional Weather Roundup
Issued by NWS Memphis, TN

Home | Current Version | Previous Version | Text Only | Print | Product List | Glossary On
Versions: 1 2 3 4 5 6 7 8 9 10 11 12 13 14 15 16 17 18 19 20 21 22 23 24 25 26 27 28 29 30 31 32 33 34 35 36 37 38 39 40 41 42 43 44 45 46 47 48 49 50
000
ASUS44 KMEG 291700
RWRMEG
MEMPHIS CWA HOURLY WEATHER ROUNDUP
NATIONAL WEATHER SERVICE MEMPHIS TN
1200 PM CDT TUE JUL 29 2014

...WEST TENNESSEE...

CITY           SKY/WX    TMP DP  RH WIND       PRES   REMARKS
MEMPHIS INTL   MOSUNNY   79  54  41 NE10      30.14F
NWS MEMPHIS      N/A     75 N/A N/A MISG        N/A
JACKSON        MOSUNNY   73  51  46 CALM      30.14F
LEXINGTON      SUNNY     73  52  46 N5        30.13S
SAVANNAH       PTSUNNY   73  55  53 VRB6      30.14S
DYERSBURG      PTSUNNY   73  50  43 N7        30.16S
UNION CITY     SUNNY     73  52  46 N3        30.14F
PARIS          MOSUNNY   72  54  53 NE8       30.15F


...EASTERN ARKANSAS...

CITY           SKY/WX    TMP DP  RH WIND       PRES   REMARKS
JONESBORO      SUNNY     76  57  51 NE7       30.15F
WEST MEMPHIS   SUNNY     77  56  48 N12G17    30.13F
BATESVILLE     SUNNY     77  55  47 CALM      30.17S
WALNUT RIDGE   SUNNY     75  54  46 NE10      30.16F
BLYTHEVILLE    PTSUNNY   77  57  50 N6        30.15F
NW BLYTHEVILLE PTSUNNY   75  54  46 N5        30.15F
STUTTGART      SUNNY     79  61  53 N9        30.16S
PINE BLUFF     SUNNY     80  61  52 NE10      30.15F
MONTICELLO     SUNNY     82  64  54 NE10      30.12F


...NORTH MISSISSIPPI...

CITY           SKY/WX    TMP DP  RH WIND       PRES   REMARKS
TUPELO         MOSUNNY   77  57  50 N9        30.11F
OLIVE BRANCH   MOSUNNY   73  57  56 NE7       30.15F
CLARKSDALE     SUNNY     79  61  53 N12       30.14F
GREENWOOD      MOSUNNY   81  64  56 N9        30.10F
STARKVILLE     FAIR      79  61  53 N7        30.09F
GOLDEN TRIANGL PTSUNNY   82  63  51 N10       30.10F


...SOUTHEAST MISSOURI...

CITY           SKY/WX    TMP DP  RH WIND       PRES   REMARKS
WEST PLAINS    MOSUNNY   76  54  46 NE8       30.19F
POPLAR BLUFF   SUNNY     75  50  41 E7        30.15F
CAPE GIRARDEAU SUNNY     76  53  44 CALM      30.15F


...NORTHWEST ALABAMA...

CITY           SKY/WX    TMP DP  RH WIND       PRES   REMARKS
MUSCLE SHOALS  SUNNY     75  51  43 N8        30.12F


...MIDDLE TENNESSEE...

CITY           SKY/WX    TMP DP  RH WIND       PRES   REMARKS
NASHVILLE      MOSUNNY   75  52  44 N12       30.12F
CLARKSVILLE    SUNNY     76  50  40 N14       30.12F


...WESTERN KENTUCKY...

CITY           SKY/WX    TMP DP  RH WIND       PRES   REMARKS
PADUCAH        SUNNY     76  53  44 NE6       30.14S
FORT CAMPBELL  MOSUNNY   75  51  43 NW12G18   30.12F


...CENTRAL ARKANSAS...

CITY           SKY/WX    TMP DP  RH WIND       PRES   REMARKS
LITTLE ROCK    MOSUNNY   80  58  46 NE10      30.16F


SKY/WX REPORTED AS FAIR MEANS FEW OR NO CLOUDS BELOW
12 THOUSAND FEET.




USA.gov is the U.S. government's official web portal to all federal, state and local government web resources and services.